User: anonymous   Login
Location: Freistadt
(48.5112°N, 14.5013°E)
Time: 08:56:53
(UTC+02:00)
Language:

NOAA 16 DEB - Orbit

View from above orbital plane
View from above orbital plane
View from above satellite
View from above satellite

Ground track
Ground track

The orbit data is extracted from the following two-line orbital elements,

1 41406U 00055KK  24140.86967269  .00019976  00000-0  67110-2 0  9998
2 41406  98.9503 298.8430 0041254 156.7613 203.5449 14.36692530429045
Epoch (UTC): 19 May 2024 20:52:19
Eccentricity: 0.0041254
inclination: 98.9503°
perigee height: 740 km
apogee height: 799 km
right ascension of ascending node: 298.8430°
argument of perigee: 156.7613°
revolutions per day: 14.36692530
mean anomaly at epoch: 203.5449°
orbit number at epoch: 42904

The dashed part of the orbit path shows where the satellite is in the earth's shadow,  

DLR